Regional Weather Roundup
Issued by NWS Charleston, SC

Current Version | Previous Version | Graphics & Text | Print | Product List | Glossary On
Versions: 1 2 3 4 5 6 7 8 9 10 11 12 13 14 15 16 17 18 19 20 21 22 23 24 25 26 27 28 29 30 31 32 33 34 35 36 37 38 39 40 41 42 43 44 45 46 47 48 49 50
000 ASUS42 KCHS 041812 RWRCHS REGIONAL WEATHER ROUNDUP NATIONAL WEATHER SERVICE CHARLESTON SC 200 PM EDT SAT JUL 04 2015 NOTE: "FAIR" INDICATES FEW OR NO CLOUDS BELOW 12,000 FEET WITH NO SIGNIFICANT WEATHER AND/OR OBSTRUCTIONS TO VISIBILITY. NOT ALL STATIONS ARE QUALITY CONTROLLED BY THE NATIONAL WEATHER SERVICE. USE DATA WITH CAUTION...ESPECIALLY DEWPOINT OBSERVATIONS. SCZ027-030-031-034>040-042>050-041900- ...SOUTHEAST SOUTH CAROLINA... CITY SKY/WX TMP DP RH WIND PRES REMARKS N CHARLESTON PTSUNNY 89 70 53 W12 30.08S HX 94 6HR MIN TEMP: 73; 6HR MAX TEMP: 91; WATERFRONT PAR N/A 89 70 53 SW8 30.06S HX 94 MOUNT PLEASANT LGT RAIN 90 72 55 SW10 30.08S HX 96 JOHNS ISLAND FAIR 88 77 70 S13 30.08S HX 100 PINOPOLIS NOT AVBL MONCKS CORNER FAIR 88 68 51 W8 30.08S HX 91 SUMMERVILLE FAIR 86 72 62 W7 30.10S HX 92 BEAUFORT MCAS PTSUNNY 89 71 55 W10 30.09F HX 95 6HR MIN TEMP: 78; 6HR MAX TEMP: 90; BEAUFORT ARPT FAIR 91 72 52 W10G17 30.08F HX 98 HILTON HEAD IS MOSUNNY 88 79 74 SE6 30.10F HX 102 WALTERBORO CLOUDY 86 68 54 W8 30.10S ALLENDALE FAIR 86 70 58 VRB5G12 30.09F HX 90 ...SOUTHERN MIDLANDS AND PEE DEE... CITY SKY/WX TMP DP RH WIND PRES REMARKS GEORGETOWN NOT AVBL KINGSTREE NOT AVBL ORANGEBURG CLOUDY 84 68 58 W10 30.09S 6HR MIN TEMP: 72; 6HR MAX TEMP: 86; 6HR PCP: 0.03; BARNWELL MOCLDY 86 72 62 SW9 30.10F HX 92 AIKEN NOT AVBL MANNING FAIR 86 64 48 SW9 30.08S COLUMBIA CLOUDY 85 67 54 W13 30.07S 6HR MIN TEMP: 72; 6HR MAX TEMP: 85; SUMTER CLOUDY 84 69 61 W13 30.05F 6HR MIN TEMP: 72; 6HR MAX TEMP: 84; FLORENCE CLOUDY 85 66 53 W14G25 30.06R 6HR MIN TEMP: 73; 6HR MAX TEMP: 86; MYRTLE BEACH NOT AVBL N MYRTLE BEACH PTSUNNY 89 73 59 SW16G24 30.05S HX 97 6HR MIN TEMP: 77; 6HR MAX TEMP: 90; $$ GAZ063-065-086>088-099>101-113>116-118-119-134>141-150-041900- ...SOUTHEAST GEORGIA... CITY SKY/WX TMP DP RH WIND PRES REMARKS SAVANNAH ARPT PTSUNNY 91 69 48 W12 30.09F HX 96 6HR MIN TEMP: 77; 6HR MAX TEMP: 92; HUNTER AAF PTSUNNY 90 74 59 W10 30.06F HX 98 6HR MIN TEMP: 79; 6HR MAX TEMP: 92; FORT STEWART PTSUNNY 90 72 54 W7 30.07F HX 96 6HR MIN TEMP: 78; 6HR MAX TEMP: 90; STATESBORO NOT AVBL SYLVANIA MOCLDY 89 73 58 NW7 30.10F HX 96 CLAXTON FAIR 90 72 55 W8 30.08F HX 96 ...CSRA...CENTRAL AND FAR SOUTHEAST GEORGIA... CITY SKY/WX TMP DP RH WIND PRES REMARKS THOMSON CLOUDY 84 73 67 SW6 30.12F HX 90 AUGUSTA-BUSH CLOUDY 85 69 58 VRB7 30.08F 6HR MIN TEMP: 73; 6HR MAX TEMP: 85; AUGUSTA-DANIEL CLOUDY 83 68 60 W8 30.10F SWAINSBORO MOCLDY 90 73 58 NW8 30.09F HX 98 VIDALIA MOSUNNY 88 70 55 NW8 30.08F HX 92 EASTMAN MOCLDY 90 70 50 W12 30.10F HX 95 HAZLEHURST MOCLDY 89 71 54 NW8 30.08F HX 96 ALMA MOSUNNY 89 72 56 SW8 30.08F HX 96 6HR MIN TEMP: 76; 6HR MAX TEMP: 89; WAYCROSS MOSUNNY 93 74 53 W12 30.08F HX 103 JESUP MOCLDY 91 72 52 NW8 30.09F HX 98 BAXLEY FAIR 90 72 55 W6 30.08F HX 96 BRUNSWICK MOSUNNY 91 73 55 W7 30.09F HX 100 SAINT SIMONS MOSUNNY 87 76 69 SE9 30.09F HX 97 6HR MIN TEMP: 77; 6HR MAX TEMP: 91; $$ SCZ027-028-034-036>038-045-046-048>050-GAZ119-141-041900- ...LAKE AND SUPPLEMENTAL COASTAL OBSERVATIONS... STATION/POSITION TIME TEMP WIND PRES WAVE SWELL AIR SEA DIR/SP/G HT/PER HT/PER/DIR (UTC) (F) (DEG/KT/KT) (MB) (FT/S) (FT/S/D) UPR LAKE MARION NOT AVBL WINYAH BAY 1645 87 240/ 10 1017.0 LAKE MURRAY 1700 79 260/ 14/ 20 1017.9R ACE BASIN NERRS 1645 88 140/ 1 1019.0 FORT PULASKI 1700 87 83 220/ 8/ 12 1019.8S SAPELO ISLAND 1700 89 270/ 9 1020.0R $$ ANZ835-935-AMZ111-154-330-350-352-354-370-450-454-472-041900- ...C-MAN AND BUOY OBSERVATIONS... STATION/POSITION TIME TEMP WIND PRES WAVE SWELL AIR SEA DIR/SP/G HT/PER HT/PER/DIR (UTC) (F) (DEG/KT/KT) (MB) (FT/S) (FT/S/D) BUOY 41004 1750 81 82 230/ 12/ 14 1018.6R 4/ 9 3/ 9 BUOY 41008 1750 79 80 180/ 8/ 10 1019.6F 2/10 2/130/10 FOLLY BEACH CMAN 1700 82 210/ 12/ 14 1019.0S CAPERS NEARSHORE 1708 82 220/ 12/ 16 1019.1S FRIPP NEARSHORE 1700 83 210/ 10/ 12 1019.2R STATION/POSITION TIME TEMP WIND PRES WAVE SWELL AIR SEA DIR/SP/G HT/PER HT/PER/DIR (UTC) (F) (DEG/KT/KT) (MB) (FT/S) (FT/S/D) 5E ST. MARYS GA 1721 78 N/A 2/10 FRYING PAN BUOY 1750 81 79 220/ 12/ 14 1018.7R 4/ 6 3/200/ 6 BUOY 41025 1750 81 82 230/ 25/ 31 1015.3F 7/ 7 2/320/14 CAPE LOOKOUT NC 1700 83 230/ 13/ 19 1016.7R BUOY 41002 1750 82 80 240/ 10/ 12 1021.6R 5/ 6 5/270/ 6 BUOY 41010 1720 84 85 170/ 8/ 10 1021.5S ST AUGUSTINE FL 1800 77 76 130/ 13/ 14 1020.3F $$

USA.gov is the U.S. government's official web portal to all federal, state and local government web resources and services.